{"data":{"norad_id":48214,"intl_designator":"2021-031E","name":"ONEWEB-0218","alt_names":[],"object_type":"PAYLOAD","status":"ACTIVE","operator":null,"country":"UK","launch_date":"2021-04-25","launch_site_code":"VOSTO","launch_vehicle":null,"mission":null,"orbit_class":"UNKNOWN","rcs_meters":null,"size_class":null,"mass_kg":null,"dimensions":null,"purposes":["comms"],"wikipedia_slug":null,"has_3d_model":false,"image_url":null,"decayed_at":null,"tle_current":{"epoch":"2026-09-19T18:58:27.000192Z","epoch_age_seconds":79630,"freshness":"FRESH","line1":"1 48214U 21031E   26262.79059028  .00000223  00000+0  56618-3 0  9999","line2":"2 48214  87.8902 270.8332 0001334  73.2343 286.8934 13.14501250260801","mean_motion":13.1450125,"eccentricity":0.0001334,"inclination_deg":87.8902,"raan_deg":270.8332,"arg_perigee_deg":73.2343,"mean_anomaly_deg":286.8934,"bstar":0.00056618,"rev_number":26080,"period_min":109.5472522373,"perigee_km":1204.7846196861,"apogee_km":1206.8080130949,"semimajor_km":7583.9333163905,"source":"CELESTRAK","updated_at":"2026-09-20T09:00:44.592738Z"}}}